TimeEDT,TemperatureF,Dew PointF,Humidity,Sea Level PressureIn,VisibilityMPH,Wind Direction,Wind SpeedMPH,Gust SpeedMPH,PrecipitationIn,Events,Conditions,WindDirDegrees,DateUTC
12:11 AM,64.4,59.0,83,29.92,10.0,SW,4.6,-,N/A,,Overcast,220,2013-06-03 04:11:00
12:26 AM,62.6,59.0,88,29.91,10.0,SW,4.6,-,N/A,,Mostly Cloudy,220,2013-06-03 04:26:00
12:35 AM,62.6,59.0,88,29.91,10.0,SSW,3.5,-,N/A,,Mostly Cloudy,210,2013-06-03 04:35:00
12:45 AM,62.6,59.0,88,29.92,10.0,SW,4.6,-,N/A,,Mostly Cloudy,220,2013-06-03 04:45:00
12:54 AM,63.0,59.0,87,29.88,10.0,SW,4.6,-,N/A,,Mostly Cloudy,230,2013-06-03 04:54:00
1:37 AM,62.6,59.0,88,29.92,8.0,SW,4.6,-,N/A,,Mostly Cloudy,230,2013-06-03 05:37:00
1:54 AM,62.1,59.0,90,29.89,8.0,SW,5.8,-,N/A,,Mostly Cloudy,220,2013-06-03 05:54:00
2:52 AM,62.6,60.8,94,29.91,6.0,SW,4.6,-,0.00,Rain,Light Rain,230,2013-06-03 06:52:00
2:54 AM,62.1,60.1,93,29.87,5.0,SW,3.5,-,0.00,Rain,Light Rain,230,2013-06-03 06:54:00
3:02 AM,62.6,60.8,94,29.91,5.0,WSW,4.6,-,0.00,Rain,Light Rain,250,2013-06-03 07:02:00
3:28 AM,60.8,59.0,94,29.91,4.0,SW,4.6,-,0.00,,Overcast,220,2013-06-03 07:28:00
3:54 AM,61.0,59.0,93,29.87,4.0,West,4.6,-,0.00,,Overcast,270,2013-06-03 07:54:00
4:18 AM,60.8,57.2,88,29.92,10.0,WNW,4.6,-,N/A,,Overcast,300,2013-06-03 08:18:00
4:32 AM,60.8,55.4,82,29.91,10.0,Calm,Calm,-,N/A,,Overcast,0,2013-06-03 08:32:00
4:41 AM,60.8,57.2,88,29.92,10.0,West,3.5,-,N/A,,Overcast,280,2013-06-03 08:41:00
4:54 AM,60.1,57.0,90,29.88,10.0,West,4.6,-,N/A,,Overcast,280,2013-06-03 08:54:00
5:54 AM,60.1,54.0,80,29.89,10.0,NNW,5.8,-,N/A,,Overcast,340,2013-06-03 09:54:00
6:54 AM,57.9,55.0,90,29.90,10.0,NNE,3.5,-,N/A,,Mostly Cloudy,30,2013-06-03 10:54:00
7:15 AM,60.8,55.4,82,29.94,10.0,NNE,3.5,-,N/A,,Mostly Cloudy,20,2013-06-03 11:15:00
7:54 AM,60.1,55.0,83,29.90,10.0,NNE,4.6,-,N/A,,Overcast,20,2013-06-03 11:54:00
8:13 AM,60.8,55.4,82,29.94,10.0,NW,3.5,-,N/A,,Overcast,320,2013-06-03 12:13:00
8:22 AM,60.8,55.4,82,29.94,10.0,NW,3.5,-,N/A,,Overcast,320,2013-06-03 12:22:00
8:35 AM,60.8,55.4,82,29.95,10.0,North,4.6,-,N/A,,Overcast,360,2013-06-03 12:35:00
8:54 AM,60.1,55.9,86,29.93,10.0,North,4.6,-,N/A,,Overcast,360,2013-06-03 12:54:00
9:23 AM,60.8,55.4,82,29.96,10.0,North,4.6,-,N/A,,Overcast,10,2013-06-03 13:23:00
9:54 AM,61.0,55.0,81,29.94,10.0,North,4.6,-,N/A,,Overcast,350,2013-06-03 13:54:00
10:11 AM,60.8,55.4,82,29.96,9.0,North,4.6,-,N/A,,Overcast,10,2013-06-03 14:11:00
10:25 AM,60.8,55.4,82,29.96,10.0,North,4.6,-,N/A,,Overcast,360,2013-06-03 14:25:00
10:54 AM,60.1,54.0,80,29.94,10.0,NW,6.9,-,N/A,,Overcast,320,2013-06-03 14:54:00
11:54 AM,60.1,54.0,80,29.95,10.0,NW,9.2,-,N/A,,Overcast,310,2013-06-03 15:54:00
12:54 PM,60.1,53.1,78,29.96,10.0,NNW,10.4,-,N/A,,Overcast,330,2013-06-03 16:54:00
1:24 PM,60.8,53.6,77,29.98,10.0,WNW,8.1,-,N/A,,Overcast,300,2013-06-03 17:24:00
1:54 PM,62.1,53.1,72,29.95,7.0,WNW,9.2,-,N/A,,Overcast,290,2013-06-03 17:54:00
2:54 PM,61.0,53.1,75,29.95,9.0,WNW,12.7,-,N/A,,Overcast,290,2013-06-03 18:54:00
3:54 PM,61.0,53.1,75,29.95,10.0,WNW,11.5,-,N/A,,Mostly Cloudy,300,2013-06-03 19:54:00
4:54 PM,61.0,52.0,72,29.95,10.0,WNW,12.7,-,N/A,,Mostly Cloudy,300,2013-06-03 20:54:00
5:20 PM,60.8,51.8,72,29.96,10.0,WNW,13.8,-,N/A,,Overcast,300,2013-06-03 21:20:00
5:54 PM,61.0,50.0,67,29.95,10.0,WNW,13.8,-,N/A,,Mostly Cloudy,290,2013-06-03 21:54:00
6:54 PM,59.0,48.0,67,29.95,10.0,WNW,10.4,-,N/A,,Scattered Clouds,300,2013-06-03 22:54:00
7:34 PM,59.0,48.2,67,29.98,10.0,West,9.2,-,N/A,,Mostly Cloudy,280,2013-06-03 23:34:00
7:45 PM,57.2,48.2,72,29.99,10.0,WNW,8.1,-,N/A,,Mostly Cloudy,290,2013-06-03 23:45:00
7:54 PM,57.9,48.9,72,29.99,10.0,WNW,8.1,-,N/A,,Partly Cloudy,290,2013-06-03 23:54:00
8:54 PM,54.0,48.0,80,30.00,10.0,West,5.8,-,N/A,,Clear,270,2013-06-04 00:54:00
9:54 PM,53.1,46.9,80,30.01,10.0,WNW,6.9,-,N/A,,Clear,290,2013-06-04 01:54:00
10:54 PM,51.1,43.0,74,30.04,10.0,NW,8.1,-,N/A,,Clear,310,2013-06-04 02:54:00
11:54 PM,50.0,37.9,63,30.06,10.0,NNW,8.1,-,N/A,,Clear,340,2013-06-04 03:54:00